カタログに戻る

STARLINK-35489

運用中通信VLEO
NORAD 65857·PAYLOAD·🇺🇸 United States

打ち上げ Oct 3, 2025 から Vandenberg Space Force Base

Loading…

次のパス (今後24時間)

TLE

最新Source: CelesTrak SupGP

元期: Sep 14, 2026, 21:23 UTC

1 65857C 25223D   26257.89145833 -.00050574  00000+0 -14942-2 0  2579
2 65857  53.1565 131.8818 0001298  93.4384 216.8201 15.34415673    19

AllMySatでSTARLINK-35489をリアルタイム追跡

Download on the App Store